Weather History for Deering, AK

Change the Weather History Date:

Tuesday, August 20, 2013

  Actual Average (PAOT) Record (PAOT)
Temperature  
Mean Temperature 48 °F 51 °F  
Max Temperature 54 °F 56 °F 75 °F (2004)
Min Temperature 42 °F 47 °F 28 °F (1902)
Degree Days  
Heating Degree Days 17 14  
Month to date heating degree days 245  
Since 1 June heating degree days 1152  
Since 1 July heating degree days 571  
Cooling Degree Days 0    
Month to date cooling degree days  
Year to date cooling degree days  
Since 1 June cooling degree days  
Moisture  
Dew Point 41 °F    
Average Humidity 75    
Maximum Humidity 93    
Minimum Humidity 52    
Precipitation  
Precipitation 0.00 in 0.07 in 0.80 in (1902)
Month to date precipitation 1.45  
Year to date precipitation 6.15  
Snow  
Snow 0.00 in 0.00 in 0.00 in (2014)
Month to date snowfall 0.0  
Since 1 June snowfall 0.0  
Since 1 July snowfall 0.0  
Snow Depth -    
Sea Level Pressure  
Sea Level Pressure 29.75 in    
Wind  
Wind Speed 9 mph (West)    
Max Wind Speed 15 mph    
Max Gust Speed -    
Visibility 10 miles    
Events      
T = Trace of Precipitation, MM = Missing Value Source: NWS Daily Summary

Daily Weather History Graph

Daily Weather History Graph

Search for Another Location

Airport:

Trip Planner

Search our weather history database for the weather conditions in past years. The results will help you decide how hot, cold, wet, or windy it might be!

Date:

Astronomy

Aug. 20, 2013 Rise Set
Actual Time 6:47 AM AKDT 10:58 PM AKDT
Civil Twilight 5:38 AM AKDT 12:06 AM AKDT
Nautical Twilight 3:26 AM AKDT 2:21 AM AKDT
Astronomical Twilight Sun does not rise Sun does not rise
Moon 10:01 PM AKDT (8/20) 6:50 AM AKDT (8/20)
Length of Visible Light 18h 27m
Length of Day
16h 11m
Full, 100% of the Moon is Illuminated
Aug 20
Full
Aug 20
Full
Aug 28
Last Quarter
Sep 5
New
Sep 12
First Quarter

Hourly Weather History & Observations

Time (AKDT) Temp. Windchill Dew Point Humidity Pressure Visibility Wind Dir Wind Speed Gust Speed Precip Events Conditions
12:53 AM 45.0 °F 38.2 °F 42.1 °F 90% 29.70 in 10.0 mi WSW 15.0 mph - N/A   Clear
1:53 AM 43.0 °F 38.2 °F 39.9 °F 89% 29.72 in 10.0 mi SSW 8.1 mph - N/A   Clear
8:07 AM 44.6 °F 40.2 °F 42.8 °F 93% 29.74 in 10.0 mi WSW 8.1 mph - N/A   Partly Cloudy
8:21 AM 44.6 °F 40.7 °F 42.8 °F 93% 29.74 in 10.0 mi WSW 6.9 mph - N/A   Scattered Clouds
8:28 AM 44.6 °F 40.2 °F 42.8 °F 93% 29.74 in 10.0 mi WSW 8.1 mph - N/A   Mostly Cloudy
8:53 AM 46.0 °F 41.9 °F 43.0 °F 89% 29.75 in 10.0 mi WSW 8.1 mph - N/A   Overcast
9:23 AM 46.4 °F 41.9 °F 44.6 °F 93% 29.75 in 10.0 mi WSW 9.2 mph - N/A   Overcast
9:53 AM 46.9 °F - 43.0 °F 86% 29.75 in 10.0 mi West 10.4 mph - N/A   Overcast
10:35 AM 48.2 °F - 44.6 °F 87% 29.75 in 10.0 mi West 10.4 mph - N/A   Overcast
10:50 AM 48.2 °F - 42.8 °F 82% 29.75 in 10.0 mi WSW 8.1 mph - N/A   Overcast
10:53 AM 48.9 °F - 43.0 °F 80% 29.75 in 10.0 mi West 10.4 mph - N/A   Overcast
11:02 AM 48.2 °F - 42.8 °F 82% 29.75 in 10.0 mi West 10.4 mph - N/A   Overcast
11:20 AM 50.0 °F - 42.8 °F 76% 29.76 in 10.0 mi West 9.2 mph - N/A   Scattered Clouds
11:46 AM 50.0 °F - 42.8 °F 76% 29.76 in 10.0 mi West 8.1 mph - N/A   Mostly Cloudy
11:53 AM 48.9 °F - 42.1 °F 77% 29.76 in 10.0 mi West 8.1 mph - N/A   Overcast
12:53 PM 52.0 °F - 42.1 °F 69% 29.77 in 10.0 mi WNW 8.1 mph - N/A   Mostly Cloudy
1:08 PM 51.8 °F - 42.8 °F 71% 29.76 in 10.0 mi West 5.8 mph - N/A   Scattered Clouds
1:49 PM 51.8 °F - 41.0 °F 67% 29.77 in 10.0 mi NNW 3.5 mph - N/A   Mostly Cloudy
1:53 PM 51.1 °F - 41.0 °F 68% 29.77 in 10.0 mi Calm Calm - N/A   Mostly Cloudy
2:53 PM 52.0 °F - 39.0 °F 61% 29.78 in 10.0 mi Variable 4.6 mph - N/A   Partly Cloudy
3:53 PM 52.0 °F - 37.9 °F 59% 29.78 in 10.0 mi Variable 4.6 mph - N/A   Clear
4:53 PM 52.0 °F - 35.1 °F 53% 29.77 in 10.0 mi North 6.9 mph - N/A   Clear
5:53 PM 53.1 °F - 36.0 °F 52% 29.76 in 10.0 mi NNE 6.9 mph - N/A   Clear
6:53 PM 53.1 °F - 37.0 °F 55% 29.76 in 10.0 mi North 5.8 mph - N/A   Clear
7:53 PM 52.0 °F - 36.0 °F 54% 29.75 in 10.0 mi NE 5.8 mph - N/A   Clear
8:53 PM 52.0 °F - 37.0 °F 57% 29.74 in 10.0 mi ENE 6.9 mph - N/A   Clear
9:53 PM 50.0 °F - 39.0 °F 66% 29.74 in 10.0 mi East 4.6 mph - N/A   Clear
10:53 PM 45.0 °F 41.8 °F 37.9 °F 76% 29.74 in 10.0 mi SE 5.8 mph - N/A   Clear
11:53 PM 42.1 °F 39.2 °F 35.1 °F 76% 29.74 in 10.0 mi South 4.6 mph - N/A   Clear